Location: Observatory
(52.1446°N, 0.4624°W)
Time: 17:53:25
(UTC+01:00)

Envisat - Visible Passes

Search period start: 18 October 2017 00:00
Search period end: 28 October 2017 00:00
Orbit: 764 x 766 km, 98.2° (Epoch: 18 October)

Date Brightness Start Highest point End Pass type
(mag) Time Alt. Az. Time Alt. Az. Time Alt. Az.
18 Oct 3.8 19:31:40 22° ESE 19:33:56 31° ENE 19:38:23 10° N visible
18 Oct 3.8 21:11:53 42° SW 21:12:48 47° W 21:17:44 10° NNW visible
19 Oct 4.4 18:54:41 12° E 18:57:38 18° NE 19:01:01 10° NNE visible
19 Oct 2.9 20:34:55 57° SSE 20:36:00 89° ENE 20:41:08 10° NNW visible
19 Oct 5.5 22:15:08 15° W 22:15:45 16° W 22:18:48 10° NW visible
20 Oct 3.2 19:57:55 37° ESE 19:59:22 47° ENE 20:04:15 10° N visible
20 Oct 4.6 21:38:08 29° WSW 21:38:36 30° W 21:43:05 10° NNW visible
21 Oct 4.0 19:20:56 21° E 19:22:56 27° ENE 19:27:08 10° N visible
21 Oct 3.4 21:01:09 55° SW 21:01:39 58° W 21:06:41 10° NNW visible
22 Oct 4.6 18:43:57 11° E 18:46:40 16° NE 18:49:35 10° NNE visible
22 Oct 2.8 20:24:10 63° SE 20:24:54 75° ENE 20:30:00 10° NNW visible
22 Oct 5.3 22:04:23 19° W 22:04:30 19° W 22:08:05 10° NW visible
23 Oct 3.4 19:47:11 35° E 19:48:20 40° ENE 19:53:03 10° N visible
23 Oct 4.3 21:27:24 36° W 21:27:24 36° W 21:32:06 10° NNW visible
24 Oct 4.2 19:10:11 19° E 19:11:56 23° ENE 19:15:51 10° N visible
24 Oct 3.1 20:50:25 70° WSW 20:50:31 70° WSW 20:55:37 10° NNW visible
24 Oct 5.8 22:30:38 12° W 22:30:38 12° W 22:32:16 10° WNW visible
25 Oct 4.8 18:33:24 10° ENE 18:35:44 13° NE 18:38:04 10° NNE visible
25 Oct 2.9 20:13:26 60° E 20:13:48 62° ENE 20:18:51 10° N visible
25 Oct 5.1 21:53:38 23° W 21:53:38 23° W 21:57:17 10° NW visible
26 Oct 3.6 19:36:26 31° E 19:37:17 33° ENE 19:41:50 10° N visible
26 Oct 4.0 21:16:39 43° W 21:16:39 43° W 21:21:06 10° NNW visible
27 Oct 4.4 18:59:26 17° ENE 19:00:57 19° NE 19:04:30 10° N visible
27 Oct 3.0 20:39:39 80° NW 20:39:39 80° NW 20:44:31 10° NNW visible
27 Oct 5.7 22:19:52 14° WNW 22:19:52 14° WNW 22:21:58 10° NW visible
